User: anonymous   Login
Location: Baix
(44.7118°N, 4.7648°E)
Time: 20:20:39
(UTC+00:00)
Language:

Courier 1B Rocket - Orbit

View from above orbital plane
View from above orbital plane
View from above satellite
View from above satellite

Ground track
Ground track

The orbit data is extracted from the following two-line orbital elements,

1 00059U 60013B   21331.83437102  .00000089  00000-0  50473-5 0  9993
2 00059  28.2500  24.0057 0189298  41.0747 320.3886 13.52990505 17851
Epoch (UTC): 27 November 2021 20:01:29
Eccentricity: 0.0189298
inclination: 28.2500°
perigee height: 920 km
apogee height: 1202 km
right ascension of ascending node: 24.0057°
argument of perigee: 41.0747°
revolutions per day: 13.52990505
mean anomaly at epoch: 320.3886°
orbit number at epoch: 1785

The dashed part of the orbit path shows where the satellite is in the earth's shadow,  

DLR